OSSERVATORIO METEOROLOGICO COMUNALE "E. Torricelli" - Faenza (Italia)

Latitudine: 44° 17' 44.97" N - Longitudine: 11° 52' 33.27" E - Altitudine: 36 m s.l.m.

24 aprile 2018

Temperatura
(°C)
Umidità
(%)
Pressione
(hPa)
Velocità vento
(km/h)
Pioggia Rad. Sol.
(W/m2)
Max Min Med Max Min Med Max Min Max Orario Dir.
Med.
Totale
(mm)
Intensità
(mm/h)
Max
29,3 14,4 22,2 59 18 35 1015 1012 35 13:53 223 - - 967

Orario Temperatura
(°C)
Umidità
(%)
Pressione
(hPa)
Velocità vento
(km/h)
Dir. vento
(°)
Pioggia
(mm)
Rad. Sol.
(W/m2)
0:00 19,2 35 1012,2 4 253 - -
0:15 19,2 34 1012,1 6 208 - -
0:30 19,2 35 1012,0 9 300 - -
0:45 19,0 36 1012,0 12 205 - -
1:00 19,0 36 1012,0 8 203 - -
1:15 18,8 37 1011,9 4 288 - -
1:30 18,8 36 1011,8 12 250 - -
1:45 18,7 36 1011,8 12 223 - -
2:00 18,5 36 1011,9 5 253 - -
2:15 18,4 38 1011,9 1 255 - -
2:30 18,3 38 1012,0 7 230 - -
2:45 18,4 37 1012,0 8 230 - -
3:00 18,3 38 1012,1 12 260 - -
3:15 18,2 39 1012,2 13 230 - -
3:30 17,9 40 1012,2 9 288 - -
3:45 17,6 40 1012,2 4 210 - -
4:00 17,3 41 1012,2 6 173 - -
4:15 17,1 42 1012,3 6 225 - -
4:30 16,7 43 1012,4 5 258 - -
4:45 16,7 44 1012,4 4 268 - -
5:00 16,1 45 1012,6 0 - - -
5:15 15,3 47 1012,9 0 - - 0,5
5:30 14,8 50 1013,1 0 - - 13,0
5:45 14,5 52 1013,2 0 - - 27,2
6:00 14,5 55 1013,4 2 288 - 46,5
6:15 14,5 57 1013,6 0 - - 75,6
6:30 14,7 59 1013,7 1 30 - 87,2
6:45 15,2 58 1013,8 0 - - 100,6
7:00 15,7 56 1013,9 2 43 - 124,5
7:15 16,2 55 1014,0 0 - - 179,1
7:30 17,2 53 1014,1 0 - - 296,9
7:45 18,1 52 1014,1 1 180 - 368,2
8:00 19,4 48 1014,1 1 283 - 460,4
8:15 20,5 40 1014,2 2 203 - 384,2
8:30 20,8 39 1014,2 4 288 - 500,1
8:45 21,9 36 1014,2 6 318 - 448,7
9:00 22,8 34 1014,3 3 35 - 575,8
9:15 23,6 31 1014,4 9 303 - 584,3
9:30 24,5 32 1014,5 4 285 - 641,1
9:45 24,3 36 1014,5 10 8 - 661,4
10:00 23,6 40 1014,7 4 133 - 698,3
10:15 24,5 36 1014,7 8 305 - 680,2
10:30 24,2 35 1014,8 11 305 - 731,9
10:45 25,0 31 1014,7 6 238 - 785,0
11:00 26,1 29 1014,7 5 310 - 734,8
11:15 26,4 28 1014,5 6 310 - 760,6
11:30 26,2 30 1014,4 4 300 - 797,6
11:45 27,3 26 1014,4 5 258 - 799,2
12:00 28,0 24 1014,3 9 228 - 805,0
12:15 28,3 22 1014,3 13 253 - 797,3
12:30 28,4 21 1014,2 5 288 - 803,9
12:45 29,2 20 1014,2 11 160 - 663,4
13:00 28,6 20 1014,1 9 170 - 796,0
13:15 28,9 21 1014,1 9 240 - 750,1
13:30 28,6 20 1014,0 7 228 - 483,8
13:45 27,5 21 1013,9 17 245 - 539,2
14:00 27,8 19 1013,8 13 193 - 830,3
14:15 28,0 22 1013,6 12 195 - 817,6
14:30 27,5 22 1013,4 9 228 - 700,2
14:45 27,4 22 1013,3 11 178 - 659,8
15:00 27,4 23 1013,1 17 318 - 620,0
15:15 27,4 21 1013,0 6 290 - 589,5
15:30 27,2 22 1012,9 4 303 - 487,9
15:45 26,9 23 1012,7 4 248 - 197,3
16:00 26,9 23 1012,6 6 240 - 445,3
16:15 26,9 24 1012,5 6 138 - 415,7
16:30 27,1 21 1012,5 4 243 - 373,6
16:45 27,1 22 1012,4 4 228 - 329,7
17:00 26,8 23 1012,4 9 225 - 220,6
17:15 26,7 24 1012,3 7 148 - 246,3
17:30 26,5 22 1012,3 3 268 - 193,8
17:45 26,1 23 1012,2 4 165 - 150,1
18:00 25,7 24 1012,1 5 263 - 82,8
18:15 25,3 25 1012,1 6 223 - 43,8
18:30 25,2 25 1012,2 4 245 - 28,5
18:45 24,6 26 1012,2 6 218 - 13,2
19:00 23,8 28 1012,3 5 215 - 1,0
19:15 23,3 29 1012,3 8 215 - -
19:30 22,6 30 1012,4 4 215 - -
19:45 22,3 31 1012,5 1 103 - -
20:00 21,8 32 1012,7 4 188 - -
20:15 21,2 35 1012,9 4 125 - -
20:30 20,8 50 1013,0 2 178 - -
20:45 20,5 51 1013,0 3 180 - -
21:00 20,2 50 1013,2 4 160 - -
21:15 20,0 46 1013,1 3 193 - -
21:30 19,8 44 1013,1 4 213 - -
21:45 19,5 43 1013,2 4 278 - -
22:00 - - - - - - -
22:15 - - - - - - -
22:30 - - - - - - -
22:45 - - - - - - -
23:00 - - - - - - -
23:15 - - - - - - -
23:30 - - - - - - -
23:45 - - - - - - -
24:00 - - - - - - -